Location: Penzberg
(47.7615°N, 11.3159°E)
Time: 21:22:21
(UTC+01:00)

ISS - Pass Details

Date: 15 November 2017
Orbit: 402 x 407 km, 51.6° (Epoch: 24 November)

Event Time Altitude Azimuth Distance (km) Brightness Sun altitude
Exits shadow 04:55:19 34° 109° (ESE) 684 -2.2 -24.3°
Drops below altitude 10° 04:57:18 10° 112° (ESE) 1,452 -0.1 -23.9°
Sets 04:59:22 0° 113° (ESE) 2,309 1.2 -23.6°
